AE7MK-13 Weather Reports


Display with metric or nautical units.
time (UTC)temp
F
wind
direction
speed
MPH
gust
MPH
rain 1hr
in
rain 24hr
in
rain mn
in
humidity
%
barometer
mb
20260504014003 72 178 4.0 8.0 0.00 0.00 0.00 27 1013.0
20260504013003 72 164 1.0 5.0 0.00 0.00 0.00 26 1013.1
20260504012003 73 217 2.0 7.0 0.00 0.00 0.00 26 1013.2
20260504011003 73 177 1.0 4.0 0.00 0.00 0.00 26 1013.3
20260504010004 73 227 3.0 8.0 0.00 0.00 0.00 25 1013.4
20260504005003 73 213 4.0 8.0 0.00 0.00 0.00 25 1013.4
20260504004003 73 198 1.0 4.0 0.00 0.00 0.00 25 1013.5
20260504003003 73 191 4.0 8.0 0.00 0.00 0.00 25 1013.6
20260504002212 73 162 3.0 8.0 0.00 0.00 0.00 26 1013.6
20260504001003 73 174 4.0 10.0 0.00 0.00 0.00 25 1013.8
20260504000003 73 196 4.0 9.0 0.00 0.00 0.00 24 1013.9
20260503235003 73 178 3.0 6.0 0.00 0.00 0.00 24 1014.0
20260503234003 73 198 3.0 7.0 0.00 0.00 0.00 26 1014.0
20260503233003 73 207 3.0 9.0 0.00 0.00 0.00 24 1014.2
20260503232003 73 192 4.0 9.0 0.00 0.00 0.00 23 1014.3
20260503231003 73 208 5.0 11.0 0.00 0.00 0.00 23 1014.5
20260503230004 72 221 6.0 11.0 0.00 0.00 0.00 23 1014.6
20260503225214 73 191 3.0 9.0 0.00 0.00 0.00 23 1014.7
20260503224003 72 131 5.0 10.0 0.00 0.00 0.00 25 1014.8
20260503223003 72 181 7.0 14.0 0.00 0.00 0.00 24 1015.1
20260503222003 73 176 5.0 13.0 0.00 0.00 0.00 24 1015.2
20260503221214 72 195 6.0 13.0 0.00 0.00 0.00 21 1015.4
20260503220003 72 86 3.0 7.0 0.00 0.00 0.00 23 1015.4
20260503215003 72 179 3.0 8.0 0.00 0.00 0.00 24 1015.5
20260503214213 72 199 4.0 11.0 0.00 0.00 0.00 24 1015.6
20260503213003 72 163 3.0 11.0 0.00 0.00 0.00 25 1015.6
20260503212003 72 108 2.0 7.0 0.00 0.00 0.00 29 1015.7
20260503211003 71 145 3.0 9.0 0.00 0.00 0.00 26 1015.9
20260503210003 71 104 4.0 9.0 0.00 0.00 0.00 27 1015.9
20260503205003 71 104 1.0 5.0 0.00 0.00 0.00 26 1016.1
20260503204213 71 168 2.0 7.0 0.00 0.00 0.00 24 1016.3
20260503203003 70 241 4.0 9.0 0.00 0.00 0.00 26 1016.4
20260503202003 70 235 4.0 9.0 0.00 0.00 0.00 27 1016.3
20260503201003 70 238 3.0 9.0 0.00 0.00 0.00 27 1016.5
20260503200003 70 245 5.0 10.0 0.00 0.00 0.00 26 1016.7
20260503195003 70 280 2.0 10.0 0.00 0.00 0.00 27 1016.7
20260503194003 69 296 3.0 9.0 0.00 0.00 0.00 24 1016.9
20260503193003 70 289 5.0 10.0 0.00 0.00 0.00 24 1017.0
20260503192213 69 288 2.0 7.0 0.00 0.00 0.00 27 1017.0
20260503191003 70 346 2.0 9.0 0.00 0.00 0.00 27 1017.1
20260503190215 70 331 1.0 7.0 0.00 0.00 0.00 25 1017.1
20260503185213 69 310 3.0 8.0 0.00 0.00 0.00 26 1017.3
20260503184003 69 42 2.0 9.0 0.00 0.00 0.00 27 1017.3
20260503183212 70 130 1.0 5.0 0.00 0.00 0.00 25 1017.5
20260503182212 69 166 1.0 7.0 0.00 0.00 0.00 25 1017.4
20260503181004 68 43 2.0 7.0 0.00 0.00 0.00 25 1017.6
20260503180214 68 30 2.0 9.0 0.00 0.00 0.00 25 1017.6
20260503175214 68 43 3.0 9.0 0.00 0.00 0.00 25 1017.6
20260503174003 68 23 4.0 10.0 0.00 0.00 0.00 24 1017.6
20260503173003 67 30 4.0 9.0 0.00 0.00 0.00 25 1017.7
20260503172003 67 31 4.0 11.0 0.00 0.00 0.00 25 1017.7
20260503171003 67 21 5.0 11.0 0.00 0.00 0.00 25 1017.7
20260503170214 67 35 6.0 11.0 0.00 0.00 0.00 25 1017.7
20260503151003 64 360 3.0 8.0 0.00 0.00 0.00 30 1018.0
20260503131003 53 343 4.0 6.0 0.00 0.00 0.00 50 1017.9
20260503130214 53 344 5.0 7.0 0.00 0.00 0.00 50 1017.9
20260503081003 54 318 1.0 5.0 0.00 0.00 0.00 53 1018.3
20260503072003 53 342 4.0 4.0 0.00 0.00 0.00 55 1018.2
20260503071003 53 342 4.0 4.0 0.00 0.00 0.00 54 1018.1
20260503054003 54 337 4.0 5.0 0.00 0.00 0.00 50 1018.1
20260503053003 54 341 4.0 5.0 0.00 0.00 0.00 47 1018.1
20260503052003 54 336 4.0 5.0 0.00 0.00 0.00 45 1018.1
20260503051003 55 335 4.0 6.0 0.00 0.00 0.00 44 1018.2
20260503050004 55 338 4.0 6.0 0.00 0.00 0.00 43 1018.2
20260503045003 55 333 3.0 5.0 0.00 0.00 0.00 42 1018.2
20260503044003 55 332 4.0 5.0 0.00 0.00 0.00 44 1018.1
20260503043003 55 331 3.0 5.0 0.00 0.00 0.00 44 1018.1
20260503042003 54 331 3.0 5.0 0.00 0.00 0.00 46 1018.0
20260503041003 55 332 3.0 5.0 0.00 0.00 0.00 45 1017.8
20260503040213 56 328 3.0 4.0 0.00 0.00 0.00 44 1017.8
20260503035003 57 325 1.0 4.0 0.00 0.00 0.00 44 1017.6
20260503034003 58 323 0.0 3.0 0.00 0.00 0.00 44 1017.6
20260503033003 60 333 0.0 3.0 0.00 0.00 0.00 40 1017.4
20260503032003 61 325 1.0 3.0 0.00 0.00 0.00 39 1017.3
20260503031003 62 313 0.0 3.0 0.00 0.00 0.00 38 1017.3
20260503030213 64 320 0.0 1.0 0.00 0.00 0.00 37 1017.2
20260503025003 65 328 0.0 1.0 0.00 0.00 0.00 35 1017.1
20260503024003 66 347 1.0 3.0 0.00 0.00 0.00 34 1017.1
20260503023003 66 345 1.0 3.0 0.00 0.00 0.00 35 1017.1
20260503022003 66 345 2.0 5.0 0.00 0.00 0.00 36 1017.1
20260503021212 66 347 2.0 4.0 0.00 0.00 0.00 35 1017.2
20260503020214 66 342 1.0 3.0 0.00 0.00 0.00 34 1017.1
20260503015214 66 342 0.0 3.0 0.00 0.00 0.00 33 1017.2